Wind_Speed
7 9 10 11 11 11 11 11 10 10 10 8 9 8 7 8 9 9 10 10 9 7 7 5 2 2 3 4 5 6 7 6 6 5 7 9 10 12 15 17 19 21 22
7 9 10 10 11 11 12 12 11 11 10 9 9 8 7 8 9 10 10 9 8 7 6 7 7 7 7 6 4 4 6 9 8 3 3 3 2 4 5 9 12 14 16
8 9 10 10 11 11 12 12 11 11 11 9 9 9 8 7 9 11 12 11 9 7 6 6 7 7 7 8 9 9 10 9 8 6 3 3 4 4 3 5 6 6 8
9 10 10 11 11 12 12 12 12 11 11 12 11 11 9 9 8 11 11 10 9 7 6 6 8 9 9 10 10 10 11 11 9 9 8 6 5 7 7 6 5 4 6
10 11 12 12 12 12 13 13 13 14 14 13 12 11 11 11 9 8 10 9 7 7 8 8 9 10 9 9 10 11 12 12 11 11 11 10 6 7 8 9 10 9 9
11 12 13 13 13 13 13 14 14 13 15 16 15 13 9 6 4 4 4 7 8 7 9 9 9 9 10 10 10 12 12 13 13 11 11 11 14 10 10 9 10 12 13
13 13 13 13 14 14 14 15 15 14 13 16 16 11 7 6 2 3 6 10 9 10 11 13 12 11 12 13 13 13 14 12 13 12 12 11 13 12 11 12 12 10 16
12 12 13 14 13 13 13 14 14 14 14 15 16 13 8 4 1 15 13 11 9 11 12 15 14 14 15 13 14 14 14 13 14 13 12 12 11 10 9 11 11 12 11
13 13 13 12 11 12 12 12 12 12 12 11 12 9 6 5 23 5 11 9 9 11 14 15 16 20 18 16 15 15 15 15 14 13 13 13 13 11 10 10 11 11 10
13 12 10 9 10 10 10 10 10 10 12 12 11 10 10 13 8 11 8 7 13 15 16 19 23 19 18 19 18 17 15 15 15 14 14 14 14 13 11 11 14 15 14
13 11 9 8 8 9 9 10 10 11 12 13 13 14 15 14 14 15 26 23 25 22 22 22 20 20 18 19 18 17 15 15 15 14 14 14 15 15 13 13 13 16 18
10 9 8 8 9 9 9 10 11 12 13 14 14 14 15 16 18 17 25 31 33 33 29 27 23 18 14 14 14 14 14 14 16 14 13 15 16 16 16 16 16 16 17
7 7 8 9 9 11 12 13 14 14 15 15 16 16 16 16 17 19 22 27 32 36 35 32 25 19 18 13 15 15 17 17 17 19 19 18 18 19 20 20 20 19 19
6 6 6 8 10 11 12 13 13 14 14 15 16 16 17 17 17 18 21 23 30 31 34 31 30 18 18 20 19 26 26 24 22 20 24 23 22 22 23 23 24 24 24
5 6 8 9 9 9 10 12 13 14 15 16 16 17 18 17 18 18 19 20 21 26 36 28 30 29 32 31 28 26 24 22 25 26 27 28 28 26 25 25 25 25 25
6 7 6 6 7 10 12 14 15 16 17 17 17 17 18 19 20 20 20 20 20 21 28 36 37 36 34 32 30 27 25 24 23 24 28 29 29 30 28 28 28 28 28
6 4 5 7 10 13 15 17 18 18 19 19 19 20 21 21 22 21 21 21 22 22 26 33 33 33 33 32 32 32 30 29 28 26 26 27 30 31 32 31 30 29 29
5 5 8 11 14 16 18 19 20 20 22 22 23 23 23 23 24 23 23 23 23 22 24 27 29 33 34 33 31 30 28 25 26 26 26 26 28 30 33 33 32 32 31
6 8 10 12 15 19 21 22 23 22 22 23 23 23 24 24 25 25 24 25 25 25 25 24 26 24 25 27 29 30 32 32 29 24 24 26 28 27 27 29 30 31 31
8 9 12 15 20 27 32 27 24 24 24 22 21 21 22 23 24 25 26 25 24 22 23 26 29 27 26 26 27 31 32 29 31 30 29 30 30 30 29 29 29 32 36
9 12 16 21 30 34 28 25 27 26 24 22 21 22 23 24 24 24 24 23 23 23 25 28 30 29 28 26 28 30 32 34 35 32 33 31 28 26 27 29 31 32 33
11 17 23 31 34 27 28 26 25 25 22 22 23 22 23 24 25 25 22 21 19 22 27 28 33 30 31 31 33 34 34 33 34 31 31 36 32 33 34 32 30 30 30
21 28 34 33 29 30 26 24 23 23 24 23 24 24 25 24 26 25 22 22 22 22 24 28 33 35 36 35 36 37 36 35 36 37 35 37 35 38 36 35 30 29 30
28 33 27 30 31 29 25 24 23 24 24 24 24 25 26 27 27 26 25 26 29 29 30 31 35 38 37 36 35 37 39 42 40 39 34 35 34 37 38 34 30 28 26
25 27 31 31 30 30 26 24 24 25 26 25 25 25 26 27 27 23 23 30 32 33 32 33 37 36 35 33 32 33 36 35 40 42 29 32 37 38 34 34 32 27 27
29 32 33 32 31 31 27 25 25 26 27 27 26 25 25 27 28 22 26 31 33 36 37 38 40 40 40 36 34 36 34 34 35 38 27 20 31 29 27 32 28 21 20
Wind_Direction
5 5 3 1 360 356 355 351 348 344 337 333 324 315 302 285 283 284 287 295 302 291 277 256 198 176 171 208 244 260 275 279 291 317 313 273 271 266 260 258 255 255 255
355 358 358 357 357 356 355 354 351 350 345 341 332 322 306 290 288 293 298 304 305 295 287 281 278 281 280 271 263 276 284 299 302 267 329 344 299 316 289 272 265 262 260
337 342 345 346 347 348 350 350 348 345 341 337 335 329 311 291 285 287 296 302 303 293 285 283 281 280 279 279 280 281 288 291 291 279 276 254 236 243 254 255 250 250 268
322 327 330 333 334 336 338 339 339 342 337 333 331 329 319 303 289 285 293 308 312 308 302 292 290 288 289 287 285 287 290 291 289 280 263 232 283 263 243 250 272 271 271
313 317 319 321 323 325 326 328 332 333 335 336 332 327 312 301 292 288 297 315 323 325 323 316 310 303 299 296 295 295 294 292 289 279 268 248 232 262 262 249 251 249 258
311 312 310 313 315 317 318 320 322 325 330 332 336 337 326 322 270 305 293 327 325 335 333 336 333 327 317 307 302 303 295 294 291 283 270 255 240 256 279 276 265 245 244
308 308 305 307 309 313 316 317 318 319 327 331 336 348 347 340 299 333 293 309 310 320 331 336 331 331 325 316 313 312 307 297 293 286 277 268 251 262 261 265 277 286 245
306 307 306 304 305 310 314 315 315 319 328 339 345 349 342 338 120 312 289 289 289 299 312 320 317 317 320 319 320 316 307 301 296 287 280 276 271 271 266 264 275 283 281
298 301 304 302 303 308 314 315 314 316 322 334 340 342 333 316 318 263 309 287 284 286 300 299 303 306 307 309 314 314 310 300 295 286 279 276 272 271 274 277 282 284 286
299 302 301 301 303 309 314 316 316 318 319 323 325 320 308 300 311 310 292 296 282 287 290 291 295 296 295 299 301 305 309 304 297 285 283 278 276 274 270 270 278 283 285
286 283 289 297 304 312 314 314 314 314 314 313 313 311 307 302 296 288 300 302 299 297 297 297 297 296 292 288 289 295 303 305 305 291 286 282 279 276 275 270 261 272 279
278 281 288 297 304 309 310 310 310 309 308 306 306 305 303 303 302 300 298 302 306 305 306 305 304 303 296 289 283 284 289 295 299 301 297 292 284 277 277 274 274 268 270
285 288 296 305 309 311 313 314 312 311 308 307 305 303 300 297 297 297 297 299 303 306 307 307 311 309 302 285 280 276 276 274 279 287 289 289 285 280 278 278 277 275 274
264 269 287 301 308 313 316 317 317 316 313 312 309 305 302 301 298 297 296 300 303 301 304 306 313 316 303 304 285 287 289 277 267 270 279 281 280 282 281 281 278 276 275
264 287 300 308 315 321 324 325 323 321 319 316 314 310 308 308 302 297 293 292 294 297 303 302 305 305 307 306 305 303 298 286 272 266 268 273 275 276 277 277 276 275 274
274 288 301 317 329 333 332 327 322 319 317 316 314 311 310 309 305 303 299 293 287 286 287 295 299 301 304 304 305 302 299 294 286 276 271 269 270 273 275 278 280 278 275
280 299 319 330 332 330 328 324 320 316 314 313 312 311 312 310 306 304 300 295 292 289 287 290 295 301 302 303 302 299 294 290 286 282 278 273 270 267 269 273 274 275 275
272 297 318 326 329 327 326 322 316 314 313 313 314 313 314 310 308 306 303 299 296 293 292 296 298 297 298 302 302 305 302 295 291 288 282 279 279 274 268 264 266 269 271
277 301 316 324 328 330 329 326 316 311 311 310 311 313 314 314 313 311 308 304 302 299 298 299 302 304 305 306 310 308 308 308 303 295 286 283 283 282 279 272 265 265 269
287 306 318 325 331 333 324 308 309 310 308 308 310 311 313 313 313 313 312 309 308 305 304 302 303 303 305 309 306 308 308 307 306 306 300 292 289 282 280 276 273 264 261
296 312 318 325 326 315 310 309 310 305 306 307 305 305 308 309 311 311 310 309 308 307 307 305 302 303 302 302 303 304 301 304 303 304 304 302 298 291 282 276 268 272 271
299 316 322 311 308 307 312 305 300 299 301 302 303 305 308 310 312 311 307 304 299 301 302 298 297 296 296 297 304 303 300 295 291 300 296 297 297 290 290 288 286 273 272
308 311 306 303 302 301 302 298 296 294 297 300 301 304 307 311 314 312 301 302 301 298 292 295 296 295 298 300 303 302 301 295 286 297 293 290 290 291 290 292 289 288 273
311 310 300 300 302 303 301 295 291 292 295 297 299 303 306 310 312 313 313 312 308 305 300 298 296 297 297 299 300 299 299 297 293 288 287 284 285 289 292 290 286 289 273
304 300 301 302 302 301 298 291 291 291 293 295 299 301 307 308 310 308 308 302 301 301 303 302 302 296 292 289 288 293 290 290 290 295 279 288 282 295 292 283 287 284 275
303 301 302 303 300 297 294 290 290 292 295 299 300 303 307 309 311 299 293 297 299 302 306 305 302 299 296 295 293 294 291 284 282 286 299 276 284 292 272 279 294 290 263
Height
1540 1539 1538 1537 1535 1533 1530 1528 1526 1524 1522 1520 1518 1516 1515 1514 1513 1512 1511 1510 1509 1508 1508 1507 1508 1508 1508 1508 1508 1507 1505 1504 1503 1503 1503 1503 1503 1503 1503 1504 1504 1505 1506
1540 1539 1538 1536 1534 1532 1529 1527 1525 1523 1521 1519 1517 1515 1513 1512 1511 1511 1510 1509 1508 1507 1507 1506 1505 1505 1505 1505 1504 1504 1503 1502 1501 1501 1502 1501 1502 1501 1500 1500 1500 1500 1501
1539 1538 1537 1535 1533 1531 1529 1527 1525 1522 1521 1519 1516 1514 1512 1510 1509 1509 1508 1507 1507 1506 1505 1504 1504 1503 1503 1503 1502 1501 1500 1500 1499 1499 1499 1499 1499 1499 1499 1499 1498 1498 1498
1538 1537 1536 1534 1532 1530 1528 1526 1524 1522 1520 1517 1515 1513 1511 1509 1508 1507 1506 1506 1505 1505 1504 1503 1503 1502 1501 1500 1500 1499 1498 1497 1497 1496 1495 1496 1496 1496 1497 1497 1497 1498 1497
1537 1536 1534 1533 1531 1529 1527 1524 1522 1520 1518 1515 1513 1511 1508 1507 1506 1505 1505 1505 1504 1504 1503 1502 1501 1500 1499 1499 1498 1497 1495 1494 1494 1493 1493 1493 1493 1494 1493 1494 1494 1494 1495
1535 1534 1532 1531 1529 1527 1525 1523 1521 1519 1516 1513 1511 1509 1506 1504 1504 1504 1504 1504 1503 1503 1502 1501 1500 1499 1498 1497 1496 1494 1493 1492 1490 1490 1489 1489 1490 1490 1490 1489 1489 1489 1490
1532 1531 1530 1528 1527 1525 1523 1521 1519 1517 1515 1512 1508 1507 1505 1503 1503 1504 1503 1502 1502 1502 1501 1500 1498 1497 1496 1494 1493 1492 1490 1489 1488 1486 1485 1485 1485 1486 1486 1486 1485 1484 1485
1529 1528 1527 1525 1524 1522 1521 1519 1517 1515 1514 1511 1508 1505 1504 1504 1502 1502 1500 1500 1500 1499 1499 1498 1496 1495 1493 1492 1490 1489 1487 1486 1485 1483 1482 1482 1482 1482 1483 1482 1481 1481 1480
1527 1525 1524 1523 1521 1520 1518 1517 1515 1513 1512 1511 1509 1508 1506 1504 1500 1499 1498 1497 1497 1497 1496 1495 1494 1492 1490 1489 1487 1486 1484 1483 1482 1480 1480 1479 1478 1479 1479 1479 1479 1478 1477
1524 1522 1521 1520 1519 1517 1516 1514 1513 1511 1510 1509 1507 1507 1506 1505 1502 1496 1495 1495 1495 1494 1493 1491 1489 1487 1486 1484 1483 1483 1481 1479 1478 1477 1476 1475 1475 1475 1476 1477 1477 1475 1473
1520 1519 1519 1518 1517 1515 1514 1513 1511 1510 1508 1507 1505 1504 1503 1502 1500 1498 1489 1487 1487 1487 1487 1485 1484 1482 1481 1480 1479 1478 1477 1475 1474 1473 1472 1471 1471 1471 1471 1472 1472 1472 1470
1518 1518 1517 1516 1515 1513 1512 1510 1509 1507 1505 1504 1502 1501 1500 1498 1496 1495 1490 1484 1481 1478 1478 1478 1477 1477 1476 1475 1474 1473 1472 1471 1470 1469 1468 1467 1466 1466 1466 1466 1466 1466 1466
1518 1517 1516 1515 1514 1512 1511 1509 1507 1504 1502 1501 1499 1498 1496 1494 1493 1490 1487 1482 1478 1473 1470 1470 1471 1471 1471 1469 1468 1467 1466 1464 1464 1464 1463 1462 1462 1461 1460 1460 1459 1460 1459
1515 1514 1513 1512 1511 1510 1508 1507 1504 1502 1500 1498 1496 1494 1492 1490 1488 1487 1484 1481 1474 1471 1466 1464 1464 1466 1466 1465 1464 1461 1459 1459 1458 1457 1457 1456 1456 1455 1455 1454 1453 1452 1452
1514 1514 1513 1511 1510 1507 1505 1504 1502 1500 1497 1495 1493 1491 1488 1487 1484 1482 1479 1478 1475 1469 1461 1458 1459 1459 1459 1457 1456 1454 1452 1452 1451 1450 1449 1449 1448 1448 1447 1446 1446 1445 1444
1512 1511 1510 1509 1507 1506 1504 1501 1499 1497 1494 1491 1489 1486 1484 1482 1479 1477 1474 1472 1470 1468 1462 1456 1453 1453 1451 1450 1449 1447 1446 1444 1443 1442 1441 1440 1440 1439 1439 1438 1437 1437 1436
1510 1510 1509 1508 1506 1504 1501 1499 1497 1494 1491 1488 1485 1483 1480 1477 1473 1471 1468 1466 1464 1462 1457 1452 1449 1446 1443 1441 1440 1439 1438 1436 1434 1433 1432 1431 1431 1430 1430 1430 1429 1429 1428
1509 1508 1508 1506 1503 1501 1498 1495 1492 1490 1487 1484 1481 1477 1474 1471 1468 1465 1462 1459 1456 1455 1451 1447 1445 1441 1437 1435 1432 1429 1428 1427 1425 1424 1423 1422 1421 1420 1420 1420 1420 1420 1420
1506 1506 1504 1503 1500 1498 1495 1491 1488 1485 1482 1479 1476 1473 1469 1465 1462 1458 1455 1452 1449 1447 1445 1441 1438 1436 1433 1431 1426 1424 1421 1418 1417 1416 1415 1413 1412 1411 1410 1410 1410 1410 1411
1503 1502 1501 1500 1497 1494 1490 1487 1483 1479 1476 1474 1471 1468 1464 1461 1456 1453 1449 1446 1443 1440 1438 1436 1432 1430 1429 1427 1425 1420 1414 1413 1410 1409 1407 1405 1403 1402 1401 1401 1401 1401 1401
1500 1498 1495 1493 1491 1490 1487 1482 1477 1473 1470 1468 1465 1462 1459 1455 1452 1448 1444 1441 1438 1435 1433 1430 1427 1424 1422 1421 1419 1416 1411 1406 1403 1402 1398 1396 1394 1392 1392 1391 1390 1391 1391
1494 1492 1490 1488 1487 1483 1480 1476 1471 1467 1464 1461 1459 1455 1453 1449 1446 1442 1439 1436 1434 1431 1428 1425 1421 1417 1415 1413 1410 1408 1404 1400 1394 1395 1390 1387 1387 1383 1382 1382 1381 1381 1381
1489 1486 1485 1483 1479 1475 1473 1469 1465 1461 1458 1455 1452 1449 1446 1443 1439 1436 1433 1430 1427 1425 1423 1420 1414 1412 1407 1406 1403 1398 1395 1391 1386 1384 1383 1377 1378 1373 1373 1371 1371 1371 1370
1483 1481 1478 1476 1472 1469 1465 1461 1458 1455 1451 1448 1445 1442 1439 1435 1433 1429 1425 1422 1419 1416 1414 1411 1407 1402 1399 1397 1395 1390 1386 1381 1377 1374 1375 1368 1368 1364 1365 1361 1361 1362 1361
1477 1475 1472 1468 1464 1461 1459 1455 1451 1447 1444 1441 1439 1436 1432 1428 1426 1423 1420 1416 1412 1408 1406 1402 1398 1393 1391 1389 1388 1384 1379 1375 1367 1364 1363 1361 1359 1357 1355 1352 1351 1352 1353
1471 1468 1465 1461 1456 1452 1450 1447 1444 1440 1436 1434 1432 1428 1426 1422 1417 1417 1414 1409 1404 1400 1396 1391 1387 1383 1381 1378 1377 1375 1370 1365 1362 1355 1355 1355 1352 1352 1347 1343 1343 1343 1344